Weather in Listvenichny

Russia / Khanty-Mansi Autonomous Okrug — Yugra     59°38′45″N   65°42′39″E
temp.,
°C
wind,
m/s
gust,
m/s
humid.,
%
clouds,
%
prec.,
mm/h
press.,
hPa
HPBL,
m
18 may, wed
wed1823:00+13sw3864100 0.0 999183
02:00+10ssw378595 0.0 1000164
05:00+10sw2687100 0.0 1001172
08:00+14sw356485 0.0 1002535
11:00+17ssw345351 0.5 10021553
14:00+19sw4643100 1.2 10012191
17:00+17ssw374893 1.3 1001726
20:00+14sse2267100 0.1 100151
19 may, thu
thu1923:00+11ese1185100 0.6 100016
02:00+10sse1190100 0.4 99925
05:00+10ese129296 0.8 99880
08:00+14se227497 0.1 997358
11:00+16wsw1155100 2.7 9961014
14:00+17nnw225068 0.3 9951139
17:00+15nne236072 1.1 995544
20:00+11w589196 2.0 996461
20 may, fri
fri2023:00+8w5119399 2.4 997440
02:00+6wsw61192100 0.2 997535
05:00+5wsw61293100 0.6 998603
08:00+4wsw61193100 0.2 999838
11:00+6wsw61284100 0.3 10011055
14:00+9w71267100 0.1 10021486
17:00+9wnw612646 0.1 10021317
20:00+6wnw512735 0.0 1004980
21 may, sat
sat2123:00+3w3891100 0.0 1004325
02:00+2w2498100 0.0 1003119
05:00+3nnw1386100 0.0 1002283
08:00+6nne2269100 0.0 1001636
11:00+9ene3355100 0.0 9991067
14:00+11ene3446100 0.0 9981668
17:00+8ne3774100 0.3 997825
20:00+6nne4991100 1.3 994668
22 may, sun
sun2223:00+6n4797100 6.5 990376
02:00+6n3699100 11.9 986326
05:00+5wsw4698100 16.5 985374
08:00+2sw51296100 0.8 988520
11:00+3sw61294100 0.9 990932
14:00+9ssw71271100 0.6 9921648
17:00+11ssw6116099 1.3 9931934
20:00+7ssw61175100 1.4 995812